HI8EES-1 Weather Reports


time (UTC)temp
C
wind
direction
speed
KPH
gust
KPH
rain 1hr
cm
rain 24hr
cm
rain mn
cm
humidity
%
barometer
mb
20260507221358 26 90 17.7 0.0 0.00 0.00 0.00 70 1014.0
20260507220357 26 130 17.7 0.0 0.00 0.00 0.00 70 1014.0
20260507215356 27 130 17.7 0.0 0.00 0.00 0.00 70 1014.0
20260507214355 27 130 17.7 0.0 0.00 0.00 0.00 70 1014.0
20260507213354 28 130 17.7 0.0 0.00 0.00 0.00 70 1014.0
20260507212352 28 130 17.7 0.0 0.00 0.00 0.00 70 1014.0
20260507211351 29 130 17.7 0.0 0.00 0.00 0.00 70 1014.0
20260507210350 25 130 17.7 0.0 0.00 0.00 0.00 70 1014.0
20260507205347 25 130 17.7 0.0 0.00 0.00 0.00 70 1014.0
20260507204345 26 130 17.7 0.0 0.00 0.00 0.00 70 1014.0
20260507203343 26 130 17.7 0.0 0.00 0.00 0.00 70 1014.0
20260507202342 27 130 17.7 0.0 0.00 0.00 0.00 70 1014.0
20260507201341 27 130 17.7 0.0 0.00 0.00 0.00 70 1014.0
20260507200339 28 140 14.5 0.0 0.00 0.00 0.00 70 1014.0
20260507195338 28 140 14.5 0.0 0.00 0.00 0.00 70 1014.0
20260507194337 29 140 14.5 0.0 0.00 0.00 0.00 70 1014.0
20260507193335 30 140 14.5 0.0 0.00 0.00 0.00 70 1014.0
20260507192334 30 140 14.5 0.0 0.00 0.00 0.00 70 1015.0
20260507191333 25 110 17.7 0.0 0.00 0.00 0.00 70 1015.0
20260507190331 26 110 17.7 0.0 0.00 0.00 0.00 70 1015.0
20260507185330 26 110 17.7 0.0 0.00 0.00 0.00 70 1015.0
20260507184329 27 110 17.7 0.0 0.00 0.00 0.00 70 1015.0
20260507183327 27 110 17.7 0.0 0.00 0.00 0.00 70 1015.0
20260507182326 28 110 17.7 0.0 0.00 0.00 0.00 70 1016.0
20260507181325 28 110 17.7 0.0 0.00 0.00 0.00 70 1016.0
20260507180323 29 110 17.7 0.0 0.00 0.00 0.00 70 1016.0
20260507175322 26 110 17.7 0.0 0.00 0.00 0.00 66 1016.0
20260507174320 26 110 17.7 0.0 0.00 0.00 0.00 66 1016.0
20260507173318 27 110 17.7 0.0 0.00 0.00 0.00 66 1016.0
20260507172315 27 110 17.7 0.0 0.00 0.00 0.00 66 1017.0
20260507171313 28 110 17.7 0.0 0.00 0.00 0.00 66 1016.0
20260507170311 28 110 16.1 0.0 0.00 0.00 0.00 66 1016.0
20260507165308 29 110 16.1 0.0 0.00 0.00 0.00 66 1016.0
20260507164306 25 110 20.9 0.0 0.00 0.00 0.00 70 1016.0
20260507163304 26 110 20.9 0.0 0.00 0.00 0.00 70 1017.0
20260507162301 26 110 20.9 0.0 0.00 0.00 0.00 70 1017.0
20260507161300 27 110 20.9 0.0 0.00 0.00 0.00 70 1017.0
20260507160259 27 110 20.9 0.0 0.00 0.00 0.00 70 1017.0
20260507155257 28 110 20.9 0.0 0.00 0.00 0.00 70 1017.0
20260507154255 28 110 20.9 0.0 0.00 0.00 0.00 70 1017.0
20260507153253 29 110 20.9 0.0 0.00 0.00 0.00 70 1017.0
20260507152250 25 110 20.9 0.0 0.00 0.00 0.00 70 1017.0
20260507151248 26 110 20.9 0.0 0.00 0.00 0.00 70 1017.0
20260507150247 26 140 17.7 0.0 0.00 0.00 0.00 70 1017.0
20260507145246 27 140 17.7 0.0 0.00 0.00 0.00 70 1017.0
20260507144244 27 140 17.7 0.0 0.00 0.00 0.00 70 1017.0
20260507143243 28 140 17.7 0.0 0.00 0.00 0.00 70 1017.0
20260507142241 25 140 17.7 0.0 0.00 0.00 0.00 74 1017.0
20260507141239 26 120 17.7 0.0 0.00 0.00 0.00 74 1017.0
20260507140238 26 120 19.3 0.0 0.00 0.00 0.00 74 1017.0
20260507135237 27 120 19.3 0.0 0.00 0.00 0.00 74 1017.0
20260507134236 27 120 19.3 0.0 0.00 0.00 0.00 74 1017.0
20260507133235 28 120 19.3 0.0 0.00 0.00 0.00 74 1017.0
20260507132234 24 120 19.3 0.0 0.00 0.00 0.00 78 1017.0
20260507131233 25 120 19.3 0.0 0.00 0.00 0.00 78 1016.0
20260507130232 25 140 16.1 0.0 0.00 0.00 0.00 78 1016.0
20260507125231 26 140 16.1 0.0 0.00 0.00 0.00 78 1016.0
20260507124229 26 140 16.1 0.0 0.00 0.00 0.00 78 1016.0
20260507123228 27 140 16.1 0.0 0.00 0.00 0.00 78 1016.0
20260507122226 27 140 16.1 0.0 0.00 0.00 0.00 78 1016.0
20260507121225 23 140 16.1 0.0 0.00 0.00 0.00 83 1016.0
20260507120224 24 150 8.0 0.0 0.00 0.00 0.00 83 1016.0
20260507115223 25 150 8.0 0.0 0.00 0.00 0.00 83 1016.0
20260507114221 25 150 8.0 0.0 0.00 0.00 0.00 83 1016.0
20260507113220 26 150 8.0 0.0 0.00 0.00 0.00 83 1016.0
20260507112219 26 150 8.0 0.0 0.00 0.00 0.00 83 1016.0
20260507111217 22 150 8.0 0.0 0.00 0.00 0.00 89 1015.0
20260507110216 23 80 6.4 0.0 0.00 0.00 0.00 89 1015.0
20260507105215 23 80 6.4 0.0 0.00 0.00 0.00 89 1015.0
20260507104214 24 80 6.4 0.0 0.00 0.00 0.00 89 1015.0
20260507103212 25 80 6.4 0.0 0.00 0.00 0.00 89 1015.0
20260507102211 25 80 6.4 0.0 0.00 0.00 0.00 89 1015.0
20260507101210 22 80 8.0 0.0 0.00 0.00 0.00 89 1015.0
20260507100207 22 80 9.7 0.0 0.00 0.00 0.00 89 1015.0
20260507095206 23 80 9.7 0.0 0.00 0.00 0.00 89 1015.0
20260507094204 23 80 9.7 0.0 0.00 0.00 0.00 89 1015.0
20260507093202 24 80 9.7 0.0 0.00 0.00 0.00 89 1015.0
20260507092201 25 80 9.7 0.0 0.00 0.00 0.00 89 1015.0
20260507091159 25 80 9.7 0.0 0.00 0.00 0.00 89 1015.0
20260507090157 22 60 12.9 0.0 0.00 0.00 0.00 89 1015.0
20260507085156 22 60 12.9 0.0 0.00 0.00 0.00 89 1015.0
20260507084153 23 60 12.9 0.0 0.00 0.00 0.00 89 1015.0
20260507083151 23 60 12.9 0.0 0.00 0.00 0.00 89 1015.0
20260507082149 24 60 12.9 0.0 0.00 0.00 0.00 89 1015.0
20260507081147 25 60 12.9 0.0 0.00 0.00 0.00 89 1015.0
20260507080145 25 60 12.9 0.0 0.00 0.00 0.00 89 1015.0
20260507075144 22 60 12.9 0.0 0.00 0.00 0.00 83 1015.0
20260507074143 22 60 12.9 0.0 0.00 0.00 0.00 83 1015.0
20260507073142 23 60 12.9 0.0 0.00 0.00 0.00 83 1015.0
20260507072141 23 60 12.9 0.0 0.00 0.00 0.00 83 1015.0
20260507071140 24 60 12.9 0.0 0.00 0.00 0.00 83 1016.0
20260507070139 25 60 14.5 0.0 0.00 0.00 0.00 83 1016.0
20260507065138 25 60 14.5 0.0 0.00 0.00 0.00 83 1016.0
20260507064137 26 60 14.5 0.0 0.00 0.00 0.00 83 1016.0
20260507063136 26 60 14.5 0.0 0.00 0.00 0.00 83 1016.0
20260507062134 22 60 14.5 0.0 0.00 0.00 0.00 83 1016.0
20260507061133 22 60 14.5 0.0 0.00 0.00 0.00 83 1016.0
20260507060131 23 20 6.4 0.0 0.00 0.00 0.00 83 1016.0
20260507055131 23 20 6.4 0.0 0.00 0.00 0.00 83 1016.0
20260507054130 24 20 6.4 0.0 0.00 0.00 0.00 83 1016.0
20260507053127 25 20 6.4 0.0 0.00 0.00 0.00 83 1016.0
20260507052125 25 20 6.4 0.0 0.00 0.00 0.00 83 1017.0
20260507051123 22 110 8.0 0.0 0.00 0.00 0.00 83 1017.0
20260507050122 22 110 8.0 0.0 0.00 0.00 0.00 83 1017.0
20260507045121 23 110 8.0 0.0 0.00 0.00 0.00 83 1017.0
20260507044119 23 110 8.0 0.0 0.00 0.00 0.00 83 1017.0
20260507043118 24 110 8.0 0.0 0.00 0.00 0.00 83 1017.0
20260507042116 25 110 8.0 0.0 0.00 0.00 0.00 83 1018.0
20260507041115 25 110 8.0 0.0 0.00 0.00 0.00 83 1017.0
20260507040113 26 110 8.0 0.0 0.00 0.00 0.00 83 1017.0
20260507034111 26 110 8.0 0.0 0.00 0.00 0.00 83 1017.0
20260507033108 22 110 8.0 0.0 0.00 0.00 0.00 83 1017.0
20260507032107 22 110 8.0 0.0 0.00 0.00 0.00 83 1018.0
20260507031106 23 110 8.0 0.0 0.00 0.00 0.00 83 1017.0
20260507025101 24 110 8.0 0.0 0.00 0.00 0.00 83 1017.0
20260507024059 25 110 8.0 0.0 0.00 0.00 0.00 83 1017.0
20260507023057 25 110 8.0 0.0 0.00 0.00 0.00 83 1017.0
20260507022055 26 110 8.0 0.0 0.00 0.00 0.00 83 1017.0
20260507021053 26 110 8.0 0.0 0.00 0.00 0.00 83 1017.0
20260507020051 22 140 6.4 0.0 0.00 0.00 0.00 83 1017.0
20260507015049 23 140 6.4 0.0 0.00 0.00 0.00 83 1017.0
20260507014048 23 140 6.4 0.0 0.00 0.00 0.00 83 1017.0
20260507013045 24 140 6.4 0.0 0.00 0.00 0.00 83 1017.0
20260507012043 25 140 6.4 0.0 0.00 0.00 0.00 83 1017.0
20260507011042 25 140 6.4 0.0 0.00 0.00 0.00 83 1017.0
20260507010040 26 140 6.4 0.0 0.00 0.00 0.00 83 1017.0
20260507005039 26 140 6.4 0.0 0.00 0.00 0.00 83 1017.0
20260507004038 22 160 17.7 0.0 0.00 0.00 0.00 70 1017.0
20260507003037 23 160 17.7 0.0 0.00 0.00 0.00 70 1017.0
20260507002036 23 160 17.7 0.0 0.00 0.00 0.00 70 1016.0
20260507001035 24 160 17.7 0.0 0.00 0.00 0.00 70 1016.0
20260507000033 25 160 17.7 0.0 0.00 0.00 0.00 70 1016.0
20260506235031 25 160 17.7 0.0 0.00 0.00 0.00 70 1016.0
20260506234030 26 160 17.7 0.0 0.00 0.00 0.00 70 1016.0
20260506233027 26 160 17.7 0.0 0.00 0.00 0.00 70 1016.0
20260506232026 27 160 17.7 0.0 0.00 0.00 0.00 70 1016.0
20260506231025 27 160 17.7 0.0 0.00 0.00 0.00 70 1016.0
20260506230023 28 160 17.7 0.0 0.00 0.00 0.00 70 1016.0
20260506225022 23 140 20.9 0.0 0.00 0.00 0.00 70 1016.0
20260506224020 23 140 20.9 0.0 0.00 0.00 0.00 70 1016.0
20260506223019 24 140 20.9 0.0 0.00 0.00 0.00 70 1016.0
20260506222017 25 140 20.9 0.0 0.00 0.00 0.00 70 1016.0